SRR250 ENAL-ENVA

Flight info

Callsign SRR250
Flight time 0h 53m
Altitude 15000
Route NELSU
Aircraft YS11/M-SDFHY/C

Departure

Time 2026-04-27 19:10
Airport Ålesund Airport (ENAL)

Arrival

Time 2026-04-27 20:03
Airport Trondheim Airport, Værnes (ENVA)
Time Latitude Longitude Altitude Speed Heading
2026-04-27 18:55 62.55814 6.11054 68 ft 0 kts 181°
2026-04-27 19:05 62.55813 6.11054 61 ft 0 kts 181°
2026-04-27 19:05 62.55801 6.11027 64 ft 5 kts 271°
2026-04-27 19:05 62.55825 6.11009 61 ft 1 kts 19°
2026-04-27 19:05 62.55846 6.11033 68 ft 2 kts 31°
2026-04-27 19:06 62.55863 6.11055 63 ft 5 kts 32°
2026-04-27 19:06 62.55898 6.11045 68 ft 8 kts 302°
2026-04-27 19:06 62.55912 6.10936 68 ft 12 kts 285°
2026-04-27 19:06 62.55936 6.10744 65 ft 15 kts 286°
2026-04-27 19:07 62.55931 6.10506 65 ft 19 kts 244°
2026-04-27 19:07 62.55855 6.10158 60 ft 19 kts 244°
2026-04-27 19:07 62.55818 6.09987 62 ft 19 kts 245°
2026-04-27 19:07 62.55745 6.09657 62 ft 18 kts 244°
2026-04-27 19:08 62.55708 6.09486 61 ft 18 kts 245°
2026-04-27 19:08 62.55653 6.09232 58 ft 19 kts 245°
2026-04-27 19:08 62.55596 6.09094 54 ft 9 kts 214°
2026-04-27 19:08 62.55589 6.09004 61 ft 5 kts 339°
2026-04-27 19:09 62.55604 6.09016 60 ft 1 kts 56°
2026-04-27 19:09 62.55608 6.09031 56 ft 0 kts 64°
2026-04-27 19:09 62.55627 6.09120 53 ft 40 kts 65°
2026-04-27 19:10 62.55772 6.09782 65 ft 94 kts 64°
2026-04-27 19:10 62.56103 6.11294 233 ft 116 kts 64°
2026-04-27 19:10 62.56483 6.12951 598 ft 131 kts 60°
2026-04-27 19:10 62.56802 6.14046 828 ft 128 kts 56°
2026-04-27 19:11 62.57444 6.16023 1291 ft 115 kts 56°
2026-04-27 19:11 62.57890 6.17529 1389 ft 125 kts 59°
2026-04-27 19:11 62.58362 6.19251 1460 ft 142 kts 59°
2026-04-27 19:11 62.58893 6.21170 1621 ft 154 kts 59°
2026-04-27 19:12 62.59477 6.23171 1852 ft 158 kts 58°
2026-04-27 19:12 62.60079 6.25206 2102 ft 162 kts 58°
2026-04-27 19:12 62.60671 6.27268 2346 ft 164 kts 59°
2026-04-27 19:12 62.61271 6.29398 2590 ft 167 kts 59°
2026-04-27 19:13 62.61882 6.31536 2882 ft 166 kts 59°
2026-04-27 19:13 62.62499 6.33668 3172 ft 167 kts 59°
2026-04-27 19:13 62.63127 6.35795 3457 ft 168 kts 56°
2026-04-27 19:13 62.63808 6.37873 3738 ft 169 kts 52°
2026-04-27 19:14 62.64599 6.39781 4024 ft 171 kts 45°
2026-04-27 19:14 62.65445 6.41603 4319 ft 172 kts 46°
2026-04-27 19:14 62.66250 6.43535 4606 ft 173 kts 49°
2026-04-27 19:14 62.67025 6.45500 4894 ft 174 kts 49°
2026-04-27 19:15 62.67741 6.47628 5176 ft 176 kts 64°
2026-04-27 19:15 62.68187 6.50108 5467 ft 177 kts 71°
2026-04-27 19:15 62.68565 6.52661 5758 ft 178 kts 72°
2026-04-27 19:15 62.68911 6.55259 6047 ft 180 kts 75°
2026-04-27 19:16 62.69170 6.57932 6339 ft 181 kts 78°
2026-04-27 19:16 62.69321 6.59729 6538 ft 183 kts 78°
2026-04-27 19:16 62.69686 6.63364 6930 ft 185 kts 75°
2026-04-27 19:16 62.69985 6.66065 7203 ft 187 kts 75°
2026-04-27 19:17 62.70264 6.68847 7477 ft 189 kts 75°
2026-04-27 19:17 62.70530 6.71675 7759 ft 191 kts 75°
2026-04-27 19:17 62.70815 6.74519 8049 ft 194 kts 74°
2026-04-27 19:17 62.71115 6.77396 8357 ft 195 kts 74°
2026-04-27 19:18 62.71406 6.80300 8682 ft 197 kts 75°
2026-04-27 19:18 62.71691 6.83229 9007 ft 198 kts 74°
2026-04-27 19:18 62.71980 6.86166 9330 ft 199 kts 74°
2026-04-27 19:18 62.72272 6.89078 9628 ft 200 kts 73°
2026-04-27 19:19 62.72567 6.92038 9918 ft 200 kts 73°
2026-04-27 19:19 62.72858 6.95017 10213 ft 201 kts 73°
2026-04-27 19:19 62.73149 6.98001 10501 ft 201 kts 73°
2026-04-27 19:19 62.73444 7.00984 10742 ft 202 kts 73°
2026-04-27 19:20 62.73739 7.03984 11016 ft 202 kts 73°
2026-04-27 19:20 62.74028 7.06983 11298 ft 203 kts 73°
2026-04-27 19:20 62.74319 7.10002 11524 ft 203 kts 72°
2026-04-27 19:20 62.74615 7.13013 11792 ft 203 kts 72°
2026-04-27 19:21 62.74912 7.16036 12056 ft 204 kts 72°
2026-04-27 19:21 62.75199 7.19024 12339 ft 204 kts 72°
2026-04-27 19:21 62.75489 7.22062 12628 ft 205 kts 72°
2026-04-27 19:21 62.75782 7.25106 12881 ft 205 kts 72°
2026-04-27 19:22 62.76078 7.28162 13174 ft 206 kts 72°
2026-04-27 19:22 62.76371 7.31230 13455 ft 207 kts 72°
2026-04-27 19:22 62.76664 7.34325 13751 ft 209 kts 72°
2026-04-27 19:22 62.76960 7.37445 14035 ft 211 kts 72°
2026-04-27 19:23 62.77260 7.40583 14330 ft 212 kts 72°
2026-04-27 19:23 62.77561 7.43755 14614 ft 214 kts 71°
2026-04-27 19:23 62.77861 7.46951 14862 ft 215 kts 71°
2026-04-27 19:23 62.78158 7.50127 15118 ft 217 kts 71°
2026-04-27 19:24 62.78469 7.53398 15312 ft 222 kts 71°
2026-04-27 19:24 62.78784 7.56731 15430 ft 228 kts 71°
2026-04-27 19:24 62.79109 7.60204 15425 ft 239 kts 71°
2026-04-27 19:24 62.79445 7.63821 15428 ft 247 kts 72°
2026-04-27 19:25 62.79788 7.67545 15426 ft 253 kts 72°
2026-04-27 19:25 62.80139 7.71342 15457 ft 257 kts 72°
2026-04-27 19:25 62.80494 7.75179 15462 ft 258 kts 72°
2026-04-27 19:25 62.80848 7.79035 15452 ft 259 kts 72°
2026-04-27 19:26 62.81198 7.82841 15437 ft 259 kts 72°
2026-04-27 19:26 62.81551 7.86699 15440 ft 258 kts 72°
2026-04-27 19:26 62.81903 7.90554 15432 ft 258 kts 72°
2026-04-27 19:26 62.82411 7.94271 15436 ft 252 kts 60°
2026-04-27 19:27 62.83193 7.97664 15442 ft 249 kts 53°
2026-04-27 19:27 62.84088 8.00899 15456 ft 248 kts 51°
2026-04-27 19:27 62.85020 8.04074 15460 ft 248 kts 50°
2026-04-27 19:27 62.85970 8.07220 15460 ft 247 kts 49°
2026-04-27 19:28 62.87012 8.10119 15455 ft 244 kts 43°
2026-04-27 19:28 62.88125 8.12927 15449 ft 245 kts 44°
2026-04-27 19:28 62.89168 8.15895 15448 ft 246 kts 47°
2026-04-27 19:28 62.90201 8.18890 15492 ft 246 kts 45°
2026-04-27 19:29 62.91283 8.21782 15479 ft 246 kts 43°
2026-04-27 19:29 62.92361 8.24700 15462 ft 246 kts 45°
2026-04-27 19:29 62.93401 8.27678 15471 ft 245 kts 45°
2026-04-27 19:29 62.94447 8.30614 15460 ft 243 kts 44°
2026-04-27 19:30 62.95495 8.33462 15456 ft 243 kts 44°
2026-04-27 19:30 62.96544 8.36369 15454 ft 243 kts 44°
2026-04-27 19:30 62.97579 8.39302 15435 ft 242 kts 45°
2026-04-27 19:30 62.98618 8.42209 15435 ft 241 kts 44°
2026-04-27 19:31 62.99662 8.45090 15420 ft 241 kts 44°
2026-04-27 19:31 63.00697 8.47982 15430 ft 241 kts 44°
2026-04-27 19:31 63.01729 8.50897 15459 ft 242 kts 45°
2026-04-27 19:31 63.02767 8.53819 15428 ft 242 kts 44°
2026-04-27 19:32 63.03792 8.56689 15424 ft 241 kts 44°
2026-04-27 19:32 63.04834 8.59595 15440 ft 242 kts 44°
2026-04-27 19:32 63.05868 8.62522 15462 ft 242 kts 45°
2026-04-27 19:32 63.06903 8.65459 15462 ft 242 kts 44°
2026-04-27 19:33 63.07942 8.68387 15463 ft 243 kts 44°
2026-04-27 19:33 63.08631 8.70324 15451 ft 243 kts 44°
2026-04-27 19:33 63.10021 8.74261 15469 ft 243 kts 45°
2026-04-27 19:33 63.11044 8.77171 15495 ft 243 kts 45°
2026-04-27 19:34 63.11846 8.80529 15460 ft 256 kts 66°
2026-04-27 19:34 63.12182 8.84430 15442 ft 261 kts 76°
2026-04-27 19:34 63.12343 8.88429 15472 ft 263 kts 79°
2026-04-27 19:34 63.12442 8.92474 15472 ft 263 kts 80°
2026-04-27 19:35 63.12508 8.96514 15471 ft 265 kts 82°
2026-04-27 19:35 63.12410 9.00606 15474 ft 268 kts 89°
2026-04-27 19:35 63.12250 9.04708 15461 ft 267 kts 86°
2026-04-27 19:35 63.12208 9.08791 15514 ft 266 kts 82°
2026-04-27 19:36 63.12143 9.12832 15507 ft 268 kts 86°
2026-04-27 19:36 63.12004 9.16941 15478 ft 268 kts 86°
2026-04-27 19:36 63.11913 9.21037 15478 ft 266 kts 84°
2026-04-27 19:36 63.11851 9.25122 15462 ft 266 kts 85°
2026-04-27 19:37 63.11741 9.29197 15451 ft 266 kts 86°
2026-04-27 19:37 63.11628 9.33280 15464 ft 266 kts 85°
2026-04-27 19:37 63.11546 9.37362 15481 ft 266 kts 85°
2026-04-27 19:37 63.11453 9.41452 15492 ft 267 kts 86°
2026-04-27 19:38 63.11339 9.45549 15501 ft 267 kts 86°
2026-04-27 19:38 63.11237 9.49646 15462 ft 267 kts 85°
2026-04-27 19:38 63.11144 9.53677 15444 ft 266 kts 85°
2026-04-27 19:38 63.11057 9.57756 15464 ft 265 kts 83°
2026-04-27 19:39 63.11076 9.61811 15486 ft 263 kts 80°
2026-04-27 19:39 63.11155 9.65838 15483 ft 263 kts 79°
2026-04-27 19:39 63.11324 9.69829 15472 ft 258 kts 72°
2026-04-27 19:39 63.11678 9.73700 15486 ft 257 kts 69°
2026-04-27 19:40 63.11998 9.77602 15480 ft 260 kts 73°
2026-04-27 19:40 63.12225 9.81572 15484 ft 260 kts 74°
2026-04-27 19:40 63.12512 9.85449 15517 ft 258 kts 70°
2026-04-27 19:40 63.12832 9.89357 15491 ft 259 kts 72°
2026-04-27 19:41 63.13094 9.93299 15489 ft 259 kts 73°
2026-04-27 19:41 63.13356 9.97239 15481 ft 258 kts 72°
2026-04-27 19:41 63.13656 10.01142 15488 ft 258 kts 71°
2026-04-27 19:41 63.13940 10.05068 15479 ft 259 kts 73°
2026-04-27 19:42 63.14199 10.09012 15473 ft 259 kts 73°
2026-04-27 19:42 63.14477 10.12941 15487 ft 258 kts 72°
2026-04-27 19:42 63.14767 10.16864 15485 ft 259 kts 72°
2026-04-27 19:42 63.15032 10.20753 15475 ft 259 kts 73°
2026-04-27 19:43 63.15296 10.24690 15476 ft 259 kts 72°
2026-04-27 19:43 63.15572 10.28617 15464 ft 258 kts 72°
2026-04-27 19:43 63.15849 10.32543 15485 ft 258 kts 72°
2026-04-27 19:43 63.16115 10.36482 15481 ft 259 kts 73°
2026-04-27 19:44 63.16379 10.40427 15484 ft 259 kts 72°
2026-04-27 19:44 63.16650 10.44368 15473 ft 259 kts 72°
2026-04-27 19:44 63.16919 10.48307 15472 ft 259 kts 73°
2026-04-27 19:44 63.17178 10.52198 15477 ft 259 kts 73°
2026-04-27 19:45 63.17441 10.56134 15479 ft 259 kts 73°
2026-04-27 19:45 63.17707 10.60080 15478 ft 259 kts 73°
2026-04-27 19:45 63.17970 10.64029 15517 ft 259 kts 72°
2026-04-27 19:45 63.18230 10.67976 15488 ft 259 kts 72°
2026-04-27 19:46 63.18485 10.71915 15481 ft 258 kts 72°
2026-04-27 19:46 63.18745 10.75844 15468 ft 258 kts 72°
2026-04-27 19:46 63.19006 10.79771 15468 ft 257 kts 72°
2026-04-27 19:46 63.19256 10.83646 15479 ft 258 kts 72°
2026-04-27 19:47 63.19508 10.87567 15469 ft 258 kts 72°
2026-04-27 19:47 63.19762 10.91496 15428 ft 259 kts 72°
2026-04-27 19:47 63.20024 10.95489 15202 ft 263 kts 72°
2026-04-27 19:47 63.20279 10.99515 14980 ft 265 kts 73°
2026-04-27 19:48 63.20530 11.03558 14751 ft 265 kts 73°
2026-04-27 19:48 63.20788 11.07592 14505 ft 264 kts 73°
2026-04-27 19:48 63.21045 11.11620 14269 ft 264 kts 73°
2026-04-27 19:48 63.21294 11.15640 13986 ft 263 kts 73°
2026-04-27 19:49 63.21539 11.19595 13717 ft 262 kts 73°
2026-04-27 19:49 63.21790 11.23584 13468 ft 261 kts 73°
2026-04-27 19:49 63.22037 11.27556 13213 ft 259 kts 73°
2026-04-27 19:49 63.22277 11.31504 12938 ft 258 kts 74°
2026-04-27 19:50 63.22507 11.35460 12665 ft 259 kts 76°
2026-04-27 19:50 63.22623 11.39457 12415 ft 261 kts 80°
2026-04-27 19:50 63.22634 11.43476 12186 ft 262 kts 82°
2026-04-27 19:50 63.22460 11.47519 11923 ft 266 kts 92°
2026-04-27 19:51 63.22127 11.51545 11651 ft 263 kts 88°
2026-04-27 19:51 63.22082 11.55493 11318 ft 257 kts 79°
2026-04-27 19:51 63.22243 11.59417 11021 ft 254 kts 75°
2026-04-27 19:51 63.22538 11.63246 10724 ft 249 kts 67°
2026-04-27 19:52 63.23082 11.66845 10392 ft 244 kts 60°
2026-04-27 19:52 63.23797 11.70224 10053 ft 240 kts 54°
2026-04-27 19:52 63.24630 11.73412 9692 ft 238 kts 51°
2026-04-27 19:52 63.25525 11.76484 9356 ft 236 kts 49°
2026-04-27 19:53 63.27732 11.81648 8701 ft 230 kts 34°
2026-04-27 19:53 63.29021 11.83726 8380 ft 228 kts 30°
2026-04-27 19:53 63.30351 11.85635 8059 ft 227 kts 28°
2026-04-27 19:54 63.31722 11.87347 7731 ft 225 kts 22°
2026-04-27 19:54 63.33172 11.88605 7356 ft 223 kts 15°
2026-04-27 19:54 63.34695 11.88671 6979 ft 223 kts 345°
2026-04-27 19:54 63.35959 11.86689 6639 ft 230 kts 311°
2026-04-27 19:55 63.36509 11.83353 6270 ft 234 kts 282°
2026-04-27 19:55 63.36626 11.79749 5913 ft 232 kts 277°
2026-04-27 19:55 63.36684 11.76233 5562 ft 228 kts 277°
2026-04-27 19:55 63.36755 11.72725 5207 ft 225 kts 277°
2026-04-27 19:56 63.36891 11.69286 4846 ft 220 kts 283°
2026-04-27 19:56 63.37224 11.65999 4507 ft 215 kts 289°
2026-04-27 19:56 63.37586 11.62810 4289 ft 209 kts 286°
2026-04-27 19:56 63.37837 11.59695 4327 ft 201 kts 283°
2026-04-27 19:57 63.38141 11.56681 4343 ft 196 kts 297°
2026-04-27 19:57 63.39029 11.54502 4313 ft 193 kts 329°
2026-04-27 19:57 63.40185 11.53058 4327 ft 194 kts 334°
2026-04-27 19:57 63.41406 11.51762 4301 ft 196 kts 338°
2026-04-27 19:58 63.42696 11.50762 4299 ft 199 kts 345°
2026-04-27 19:58 63.44037 11.49854 4162 ft 204 kts 340°
2026-04-27 19:58 63.45147 11.47888 4027 ft 210 kts 305°
2026-04-27 19:58 63.45564 11.44747 3903 ft 215 kts 277°
2026-04-27 19:59 63.45624 11.41400 3784 ft 216 kts 273°
2026-04-27 19:59 63.45596 11.38030 3656 ft 217 kts 269°
2026-04-27 19:59 63.45565 11.34675 3531 ft 216 kts 274°
2026-04-27 19:59 63.45641 11.31327 3390 ft 216 kts 275°
2026-04-27 20:00 63.45686 11.27990 3151 ft 220 kts 272°
2026-04-27 20:00 63.45658 11.24551 2848 ft 222 kts 271°
2026-04-27 20:00 63.45660 11.21096 2529 ft 219 kts 274°
2026-04-27 20:00 63.45699 11.17827 2208 ft 204 kts 274°
2026-04-27 20:01 63.45716 11.14813 1963 ft 176 kts 272°
2026-04-27 20:01 63.45709 11.12311 1697 ft 149 kts 271°
2026-04-27 20:01 63.45709 11.10021 1391 ft 156 kts 272°
2026-04-27 20:01 63.45727 11.07521 1209 ft 165 kts 272°
2026-04-27 20:02 63.45739 11.05044 989 ft 150 kts 272°
2026-04-27 20:02 63.45738 11.02864 799 ft 138 kts 271°
2026-04-27 20:02 63.45734 11.00737 655 ft 136 kts 272°
2026-04-27 20:02 63.45750 10.98653 531 ft 132 kts 272°
2026-04-27 20:03 63.45747 10.96607 369 ft 131 kts 271°
2026-04-27 20:03 63.45751 10.94718 133 ft 102 kts 272°
2026-04-27 20:03 63.45759 10.93205 51 ft 77 kts 270°
2026-04-27 20:03 63.45755 10.92258 41 ft 48 kts 272°
2026-04-27 20:04 63.45761 10.91751 38 ft 15 kts 270°
2026-04-27 20:04 63.45759 10.91562 37 ft 15 kts 255°
2026-04-27 20:04 63.45685 10.91518 38 ft 13 kts 180°
2026-04-27 20:04 63.45610 10.91504 39 ft 9 kts 220°
2026-04-27 20:05 63.45597 10.91402 39 ft 7 kts 264°
2026-04-27 20:05 63.45597 10.91283 37 ft 7 kts 270°
2026-04-27 20:05 63.45594 10.91187 36 ft 6 kts 244°
2026-04-27 20:05 63.45549 10.91147 37 ft 7 kts 180°
2026-04-27 20:06 63.45496 10.91173 39 ft 8 kts 117°
2026-04-27 20:06 63.45493 10.91257 39 ft 2 kts 88°
2026-04-27 20:06 63.45493 10.91259 39 ft 0 kts 88°